Ft Pierce, FL

5:20 PM EST on January 17, 2018 (GMT -0500)
Saint Lucie County International

Weather History for KFPR - November, 2012

Change the Weather History Date:

Friday, November 30, 2012

  Actual Average Record
Temperature  
Mean Temperature 67 °F 68 °F  
Max Temperature 77 °F 77 °F 90 °F (1918)
Min Temperature 57 °F 59 °F 36 °F (1966)
Degree Days  
Heating Degree Days 0 1  
Month to date heating degree days 18  
Since 1 July heating degree days 26  
Cooling Degree Days 2 4  
Month to date cooling degree days 173  
Year to date cooling degree days 3272  
Growing Degree Days 17 (Base 50)    
Moisture  
Dew Point 57 °F    
Average Humidity 63    
Maximum Humidity 90    
Minimum Humidity 50    
Precipitation  
Precipitation 0.00 in 0.10 in 2.64 in (1925)
Month to date precipitation 3.10  
Year to date precipitation 51.73  
Sea Level Pressure  
Sea Level Pressure 30.20 in    
Wind  
Wind Speed 8 mph (ENE)    
Max Wind Speed 16 mph    
Max Gust Speed 24 mph    
Visibility 10 miles    
Events      
T = Trace of Precipitation, MM = Missing Value Source: NWS Daily Summary

Daily Weather History Graph

Daily Weather History Graph

Search for Another Location

Airport or City:

Trip Planner

Search our weather history database for the weather conditions in past years. The results will help you decide how hot, cold, wet, or windy it might be!

Date:

Astronomy

Nov. 30, 2012 Rise Set
Actual Time 6:54 AM EST 5:26 PM EST
Civil Twilight 6:28 AM EST 5:51 PM EST
Nautical Twilight 6:00 AM EST 6:20 PM EST
Astronomical Twilight 5:31 AM EST 6:48 PM EST
Moon 7:18 PM EST (11/30) 8:25 AM EST (11/30)
Length of Visible Light 11h 22m
Length of Day
10h 32m
Waning Gibbous, 96% of the Moon is Illuminated
Nov 30
Waning Gibbous
Dec 6
Last Quarter
Dec 13
New
Dec 20
First Quarter
Dec 28
Full

Hourly Weather History & Observations

Time (EST) Temp. Dew Point Humidity Pressure Visibility Wind Dir Wind Speed Gust Speed Precip Events Conditions
12:53 AM 69.1 °F 55.9 °F 63% 30.21 in 10.0 mi East 9.2 mph - N/A   Clear
1:53 AM 68.0 °F 55.9 °F 65% 30.21 in 10.0 mi East 6.9 mph - N/A   Clear
2:53 AM 69.1 °F 55.9 °F 63% 30.20 in 10.0 mi ENE 5.8 mph - N/A   Clear
3:53 AM 69.1 °F 57.0 °F 65% 30.20 in 10.0 mi ENE 5.8 mph - N/A   Clear
4:53 AM 69.1 °F 57.0 °F 65% 30.20 in 10.0 mi ENE 4.6 mph - N/A   Partly Cloudy
5:53 AM 69.1 °F 57.9 °F 68% 30.21 in 10.0 mi East 6.9 mph - N/A   Mostly Cloudy
6:53 AM 70.0 °F 57.9 °F 65% 30.22 in 10.0 mi ENE 8.1 mph - N/A   Clear
7:53 AM 71.1 °F 57.9 °F 63% 30.23 in 10.0 mi ENE 5.8 mph - N/A   Scattered Clouds
8:53 AM 73.9 °F 57.9 °F 57% 30.25 in 10.0 mi ENE 8.1 mph - N/A   Clear
9:53 AM 75.0 °F 57.0 °F 53% 30.25 in 10.0 mi ENE 12.7 mph - N/A   Scattered Clouds
10:53 AM 75.9 °F 57.9 °F 54% 30.25 in 10.0 mi East 10.4 mph 18.4 mph N/A   Clear
11:53 AM 77.0 °F 57.2 °F 50% 30.23 in 10.0 mi East 16.1 mph 24.2 mph N/A   Scattered Clouds
12:53 PM 77.0 °F 57.9 °F 52% 30.20 in 10.0 mi East 13.8 mph - N/A   Clear
1:53 PM 75.9 °F 59.0 °F 56% 30.17 in 10.0 mi East 15.0 mph 23.0 mph N/A   Scattered Clouds
2:53 PM 75.9 °F 59.0 °F 56% 30.16 in 10.0 mi East 10.4 mph 19.6 mph N/A   Clear
3:53 PM 73.9 °F 59.0 °F 59% 30.17 in 10.0 mi East 8.1 mph - N/A   Scattered Clouds
4:53 PM 73.0 °F 57.9 °F 59% 30.18 in 10.0 mi East 6.9 mph - N/A   Scattered Clouds
5:53 PM 70.0 °F 57.0 °F 63% 30.18 in 10.0 mi East 6.9 mph - N/A   Clear
6:53 PM 69.1 °F 55.0 °F 61% 30.18 in 10.0 mi East 4.6 mph - N/A   Clear
7:53 PM 69.1 °F 55.9 °F 63% 30.19 in 10.0 mi ENE 3.5 mph - N/A   Partly Cloudy
8:53 PM 69.1 °F 54.0 °F 58% 30.19 in 10.0 mi East 3.5 mph - N/A   Clear
9:53 PM 63.0 °F 54.0 °F 72% 30.20 in 10.0 mi Calm Calm - N/A   Clear
10:53 PM 57.9 °F 55.0 °F 90% 30.20 in 10.0 mi Calm Calm - N/A   Clear
11:53 PM 57.0 °F 54.0 °F 89% 30.19 in 10.0 mi Calm Calm - N/A   Partly Cloudy